FW5359 Weather Reports


time (UTC)temp
C
wind
direction
speed
KPH
gust
KPH
rain 1hr
cm
rain 24hr
cm
rain mn
cm
humidity
%
barometer
mb
20260506033101 25 132 3.2 9.7 0.00 0.00 0.00 84 1008.9
20260506032826 25 198 3.2 14.5 0.00 0.00 0.00 84 1008.9
20260506032049 26 152 3.2 14.5 0.00 0.00 0.00 83 1008.8
20260506031543 26 128 3.2 11.3 0.00 0.00 0.00 83 1008.7
20260506031037 26 121 4.8 19.3 0.00 0.00 0.00 82 1008.6
20260506030531 26 97 4.8 19.3 0.00 0.00 0.00 82 1008.6
20260506025751 26 176 1.6 8.0 0.00 0.00 0.00 81 1008.3
20260506025013 26 138 1.6 11.3 0.00 0.00 0.00 80 1008.3
20260506024507 26 138 1.6 11.3 0.00 0.00 0.00 80 1008.4
20260506024000 26 132 1.6 11.3 0.00 0.00 0.00 79 1008.3
20260506023455 26 132 3.2 14.5 0.00 0.00 0.00 79 1008.0
20260506022949 27 117 3.2 14.5 0.00 0.00 0.00 78 1008.0
20260506022442 27 130 3.2 11.3 0.00 0.00 0.00 78 1007.9
20260506021937 27 111 3.2 14.5 0.00 0.00 0.00 77 1007.9
20260506021431 27 136 3.2 16.1 0.00 0.00 0.00 77 1007.9
20260506020419 27 128 3.2 12.9 0.00 0.00 0.00 77 1007.8
20260506015407 27 111 1.6 9.7 0.00 0.00 0.00 77 1007.8
20260506014907 27 109 1.6 6.4 0.00 0.00 0.00 77 1007.6
20260506014406 27 111 1.6 6.4 0.00 0.00 0.00 76 1007.6
20260506014137 27 109 1.6 6.4 0.00 0.00 0.00 76 1007.4
20260506013637 27 111 0.0 4.8 0.00 0.00 0.00 76 1007.4
20260506012903 27 111 0.0 4.8 0.00 0.00 0.00 76 1007.3
20260506012403 27 112 0.0 0.0 0.00 0.00 0.00 75 1007.2
20260506011903 27 113 0.0 0.0 0.00 0.00 0.00 75 1007.2
20260506011401 28 113 0.0 0.0 0.00 0.00 0.00 75 1007.2
20260506010859 28 113 0.0 0.0 0.00 0.00 0.00 74 1007.2
20260506010358 28 113 0.0 0.0 0.00 0.00 0.00 74 1007.2
20260506005857 28 113 0.0 0.0 0.00 0.00 0.00 73 1007.1
20260506005357 28 113 0.0 0.0 0.00 0.00 0.00 72 1007.1
20260506004855 28 113 0.0 0.0 0.00 0.00 0.00 71 1007.0
20260506004353 29 113 0.0 0.0 0.00 0.00 0.00 71 1006.9
20260506003851 29 113 0.0 0.0 0.00 0.00 0.00 70 1007.1
20260506003349 29 113 0.0 0.0 0.00 0.00 0.00 70 1007.1
20260506003122 29 113 0.0 0.0 0.00 0.00 0.00 69 1007.1
20260506002347 30 113 0.0 0.0 0.00 0.00 0.00 69 1007.1
20260506001844 30 113 0.0 0.0 0.00 0.00 0.00 69 1007.0
20260506001345 30 113 0.0 0.0 0.00 0.00 0.00 69 1007.0
20260506000845 30 113 0.0 0.0 0.00 0.00 0.00 69 1006.9
20260506000346 30 113 0.0 0.0 0.00 0.00 0.00 69 1006.9
20260505235843 30 113 0.0 3.2 0.00 0.00 0.00 68 1006.9
20260505235615 30 113 0.0 3.2 0.00 0.00 0.00 68 1006.9
20260505234843 30 113 0.0 3.2 0.00 0.00 0.00 68 1006.9
20260505234343 30 113 1.6 6.4 0.00 0.00 0.00 68 1006.9
20260505233843 30 113 1.6 6.4 0.00 0.00 0.00 68 1006.9
20260505233343 30 108 3.2 9.7 0.00 0.00 0.00 67 1006.9
20260505232843 30 102 1.6 9.7 0.00 0.00 0.00 68 1006.8
20260505232339 30 156 0.0 4.8 0.00 0.00 0.00 69 1006.9
20260505231839 30 156 1.6 9.7 0.00 0.00 0.00 69 1006.8
20260505231610 30 156 1.6 9.7 0.00 0.00 0.00 68 1006.9
20260505230839 30 212 1.6 4.8 0.00 0.00 0.00 69 1006.8
20260505230611 30 217 1.6 6.4 0.00 0.00 0.00 68 1006.8
20260505225839 29 217 3.2 6.4 0.00 0.00 0.00 69 1006.8
20260505224838 29 213 3.2 11.3 0.00 0.00 0.00 69 1006.8
20260505224339 29 217 3.2 11.3 0.00 0.00 0.00 68 1006.8
20260505223837 29 158 1.6 8.0 0.00 0.00 0.00 69 1006.9
20260505223337 29 157 1.6 12.9 0.00 0.00 0.00 70 1006.9
20260505222837 29 157 3.2 12.9 0.00 0.00 0.00 69 1006.8
20260505222334 29 271 3.2 11.3 0.00 0.00 0.00 70 1006.8
20260505221833 28 251 3.2 11.3 0.00 0.00 0.00 70 1006.8
20260505221330 28 234 4.8 11.3 0.00 0.00 0.00 70 1006.8
20260505220833 28 159 4.8 11.3 0.00 0.00 0.00 71 1006.9
20260505220331 28 159 4.8 11.3 0.00 0.00 0.00 70 1006.9
20260505215331 29 170 4.8 12.9 0.00 0.00 0.00 69 1007.0
20260505214830 29 150 4.8 12.9 0.00 0.00 0.00 69 1007.0
20260505214328 29 196 3.2 9.7 0.00 0.00 0.00 69 1007.1
20260505213827 29 153 3.2 14.5 0.00 0.00 0.00 69 1007.2
20260505213327 29 153 3.2 14.5 0.00 0.00 0.00 69 1007.2
20260505213057 30 116 3.2 11.3 0.00 0.00 0.00 69 1007.3
20260505212327 30 194 3.2 11.3 0.00 0.00 0.00 69 1007.4
20260505211827 30 271 3.2 11.3 0.00 0.00 0.00 68 1007.4
20260505211329 30 218 1.6 6.4 0.00 0.00 0.00 69 1007.4
20260505211053 29 218 3.2 9.7 0.00 0.00 0.00 70 1007.6
20260505210317 29 219 3.2 12.9 0.00 0.00 0.00 69 1007.6
20260505210041 29 229 3.2 12.9 0.00 0.00 0.00 69 1007.7
20260505205305 29 151 4.8 14.5 0.00 0.00 0.00 68 1007.8
20260505204759 29 224 3.2 14.5 0.00 0.00 0.00 68 1007.9
20260505204523 29 200 3.2 11.3 0.00 0.00 0.00 70 1007.9
20260505203747 29 202 3.2 11.3 0.00 0.00 0.00 69 1008.1
20260505203241 28 215 3.2 14.5 0.00 0.00 0.00 71 1008.1
20260505202735 28 278 4.8 14.5 0.00 0.00 0.00 73 1008.2
20260505202228 28 158 4.8 11.3 0.00 0.00 0.00 72 1008.2
20260505201954 28 163 4.8 11.3 0.00 0.00 0.00 72 1008.4
20260505201216 28 177 4.8 11.3 0.00 0.00 0.00 72 1008.4
20260505200710 28 163 3.2 11.3 0.00 0.00 0.00 72 1008.5
20260505200205 28 153 3.2 11.3 0.00 0.00 0.00 71 1008.5
20260505195659 28 187 3.2 8.0 0.00 0.00 0.00 72 1008.5
20260505195153 28 180 3.2 8.0 0.00 0.00 0.00 72 1008.6
20260505194647 28 168 3.2 8.0 0.00 0.00 0.00 72 1008.6
20260505194140 28 177 3.2 11.3 0.00 0.00 0.00 71 1008.7
20260505193907 28 205 1.6 11.3 0.00 0.00 0.00 72 1008.8
20260505193359 28 206 3.2 12.9 0.00 0.00 0.00 73 1008.7
20260505192622 27 178 3.2 12.9 0.00 0.00 0.00 73 1008.8
20260505192116 27 301 3.2 12.9 0.00 0.00 0.00 73 1008.8
20260505191611 27 223 4.8 12.9 0.00 0.00 0.00 73 1008.9
20260505191105 27 233 4.8 17.7 0.00 0.00 0.00 74 1009.0
20260505190053 27 202 1.6 9.7 0.00 0.00 0.00 75 1009.1
20260505185817 27 219 1.6 12.9 0.00 0.00 0.00 74 1009.2
20260505185041 27 209 1.6 12.9 0.00 0.00 0.00 75 1009.5
20260505184535 27 244 1.6 11.3 0.00 0.00 0.00 76 1009.5
20260505184029 27 244 1.6 11.3 0.00 0.00 0.00 76 1009.6
20260505183524 26 205 1.6 9.7 0.00 0.00 0.00 77 1009.7
20260505183024 26 259 3.2 9.7 0.00 0.00 0.00 76 1009.7
20260505182522 26 194 3.2 9.7 0.00 0.00 0.00 77 1009.9
20260505182252 26 242 3.2 9.7 0.00 0.00 0.00 77 1009.9
20260505181522 26 223 3.2 12.9 0.00 0.00 0.00 77 1010.0
20260505181022 26 280 3.2 12.9 0.00 0.00 0.00 79 1010.0
20260505180522 26 160 3.2 14.5 0.00 0.00 0.00 79 1010.0
20260505180020 25 307 4.8 16.1 0.00 0.00 0.00 80 1010.0
20260505175750 25 167 3.2 16.1 0.00 0.00 0.00 80 1010.0
20260505175020 25 181 1.6 8.0 0.00 0.00 0.00 81 1010.0
20260505174518 25 231 1.6 6.4 0.00 0.00 0.00 81 1010.0
20260505174018 25 237 1.6 6.4 0.00 0.00 0.00 81 1010.0
20260505173518 25 236 3.2 9.7 0.00 0.00 0.00 81 1010.0
20260505173248 25 241 3.2 11.3 0.00 0.00 0.00 81 1010.1
20260505172514 24 253 3.2 11.3 0.00 0.00 0.00 83 1010.0
20260505172013 24 242 3.2 11.3 0.00 0.00 0.00 83 1010.1
20260505171514 24 242 1.6 11.3 0.00 0.00 0.00 83 1010.1
20260505171014 24 230 1.6 11.3 0.00 0.00 0.00 85 1010.2
20260505170514 23 240 1.6 11.3 0.00 0.00 0.00 85 1010.2
20260505170012 23 292 1.6 11.3 0.00 0.00 0.00 86 1010.2
20260505165511 23 172 3.2 11.3 0.00 0.00 0.00 87 1010.1
20260505165245 23 196 3.2 11.3 0.00 0.00 0.00 87 1010.2
20260505164746 23 194 1.6 11.3 0.00 0.00 0.00 88 1010.1
20260505164243 22 212 1.6 9.7 0.00 0.00 0.00 89 1010.1
20260505163511 22 212 1.6 9.7 0.00 0.00 0.00 90 1010.1
20260505163243 22 173 1.6 8.0 0.00 0.00 0.00 90 1010.2
20260505162511 22 171 3.2 8.0 0.00 0.00 0.00 91 1010.1
20260505162008 22 271 1.6 6.4 0.00 0.00 0.00 91 1010.3
20260505161508 21 277 1.6 8.0 0.00 0.00 0.00 92 1010.3
20260505161007 21 280 3.2 8.0 0.00 0.00 0.00 92 1010.3
20260505160507 21 227 1.6 8.0 0.00 0.00 0.00 92 1010.3
20260505152955 21 269 1.6 11.3 0.00 0.00 0.00 93 1010.3
20260505152449 21 271 1.6 11.3 0.00 0.00 0.00 93 1010.3
20260505151943 21 232 1.6 12.9 0.00 0.00 0.00 93 1010.3
20260505151437 21 259 1.6 12.9 0.00 0.00 0.00 93 1010.3
20260505150931 21 219 1.6 9.7 0.00 0.00 0.00 93 1010.2
20260505150656 21 214 1.6 9.7 0.00 0.00 0.00 93 1010.1
20260505140313 20 160 3.2 11.3 0.00 0.00 0.00 93 1010.1
20260505130213 20 142 3.2 12.9 0.00 0.00 0.00 92 1010.0
20260505124944 20 202 1.6 17.7 0.00 0.00 0.00 92 1009.9
20260505124442 20 242 3.2 17.7 0.00 0.00 0.00 92 1009.9
20260505123711 20 234 3.2 14.5 0.00 0.00 0.00 92 1009.8
20260505123442 20 236 3.2 14.5 0.00 0.00 0.00 92 1009.7
20260505122709 20 146 3.2 14.5 0.00 0.00 0.00 92 1009.6
20260505122209 20 200 3.2 14.5 0.00 0.00 0.00 92 1009.3
20260505121709 20 139 1.6 11.3 0.00 0.00 0.00 92 1009.3
20260505121439 20 224 3.2 17.7 0.00 0.00 0.00 92 1009.2
20260505120941 20 211 3.2 17.7 0.00 0.00 0.00 91 1009.2
20260505120209 20 185 1.6 9.7 0.00 0.00 0.00 91 1009.1
20260505115708 20 184 3.2 14.5 0.00 0.00 0.00 91 1009.1
20260505115207 20 227 3.2 14.5 0.00 0.00 0.00 91 1009.0
20260505114707 20 223 1.6 9.7 0.00 0.00 0.00 91 1009.0
20260505114201 20 243 1.6 8.0 0.00 0.00 0.00 91 1009.0
20260505113655 20 209 3.2 11.3 0.00 0.00 0.00 91 1009.0
20260505113148 20 209 1.6 11.3 0.00 0.00 0.00 91 1009.0
20260505112643 20 196 1.6 9.7 0.00 0.00 0.00 91 1008.9
20260505112137 20 196 3.2 9.7 0.00 0.00 0.00 91 1008.9
20260505111631 20 199 1.6 8.0 0.00 0.00 0.00 91 1008.9
20260505111125 20 206 1.6 11.3 0.00 0.00 0.00 91 1009.0
20260505110619 20 211 1.6 11.3 0.00 0.00 0.00 91 1009.0
20260505110345 20 148 1.6 11.3 0.00 0.00 0.00 91 1009.0
20260505102042 20 200 3.2 11.3 0.00 0.00 0.00 91 1009.0
20260505101543 20 163 3.2 11.3 0.00 0.00 0.00 91 1009.0
20260505101043 20 213 1.6 11.3 0.00 0.00 0.00 91 1009.0
20260505100559 20 192 1.6 12.9 0.00 0.00 0.00 90 1009.1
20260505100043 20 209 3.2 12.9 0.00 0.00 0.00 91 1009.2
20260505095041 20 260 1.6 12.9 0.00 0.00 0.00 91 1009.1
20260505094541 20 222 1.6 9.7 0.00 0.00 0.00 90 1009.1
20260505094041 20 234 3.2 12.9 0.00 0.00 0.00 90 1009.2
20260505093541 20 232 3.2 12.9 0.00 0.00 0.00 90 1009.2
20260505093042 20 206 1.6 9.7 0.00 0.00 0.00 90 1009.3
20260505092541 20 257 1.6 16.1 0.00 0.00 0.00 90 1009.3
20260505092041 20 148 1.6 16.1 0.00 0.00 0.00 90 1009.5
20260505091540 20 260 3.2 9.7 0.00 0.00 0.00 90 1009.5
20260505091041 20 188 3.2 14.5 0.00 0.00 0.00 90 1009.3
20260505090541 20 169 3.2 14.5 0.00 0.00 0.00 90 1009.3
20260505090040 20 200 3.2 12.9 0.00 0.00 0.00 90 1009.3
20260505085540 20 205 3.2 11.3 0.00 0.00 0.00 90 1009.3
20260505085041 20 191 1.6 8.0 0.00 0.00 0.00 90 1009.3
20260505084540 20 188 3.2 8.0 0.00 0.00 0.00 90 1009.3
20260505084040 20 197 3.2 11.3 0.00 0.00 0.00 90 1009.5
20260505083541 20 160 3.2 16.1 0.00 0.00 0.00 89 1009.3
20260505082538 20 136 4.8 11.3 0.00 0.00 0.00 89 1009.5
20260505082038 20 163 4.8 12.9 0.00 0.00 0.00 89 1009.7
20260505081539 20 210 3.2 12.9 0.00 0.00 0.00 89 1009.7
20260505081307 20 186 3.2 12.9 0.00 0.00 0.00 89 1009.9
20260505080536 20 248 4.8 17.7 0.00 0.00 0.00 89 1010.0
20260505080036 20 150 4.8 17.7 0.00 0.00 0.00 89 1009.9
20260505075537 20 252 3.2 12.9 0.00 0.00 0.00 89 1009.9
20260505075036 20 171 3.2 12.9 0.00 0.00 0.00 89 1010.1
20260505074806 20 240 3.2 12.9 0.00 0.00 0.00 89 1010.2
20260505074034 20 226 1.6 9.7 0.00 0.00 0.00 89 1010.2
20260505073528 20 235 3.2 11.3 0.00 0.00 0.00 89 1010.1
20260505072516 20 153 3.2 14.5 0.00 0.00 0.00 89 1010.5
20260505072011 20 171 3.2 14.5 0.00 0.00 0.00 88 1010.5
20260505071504 20 229 3.2 12.9 0.00 0.00 0.00 88 1010.5
20260505071228 20 229 3.2 16.1 0.00 0.00 0.00 88 1010.6
20260505070452 20 206 1.6 16.1 0.00 0.00 0.00 88 1010.7
20260505065946 20 227 3.2 8.0 0.00 0.00 0.00 88 1010.8
20260505065440 21 273 3.2 14.5 0.00 0.00 0.00 88 1010.9
20260505065206 21 143 4.8 17.7 0.00 0.00 0.00 88 1010.7
20260505064427 21 211 3.2 16.1 0.00 0.00 0.00 88 1010.8
20260505063921 21 124 3.2 16.1 0.00 0.00 0.00 87 1010.9
20260505063416 21 159 3.2 12.9 0.00 0.00 0.00 87 1011.0
20260505062910 21 134 3.2 11.3 0.00 0.00 0.00 87 1011.0
20260505062404 21 177 3.2 14.5 0.00 0.00 0.00 87 1010.9
20260505061858 21 196 3.2 14.5 0.00 0.00 0.00 87 1011.0
20260505061352 21 250 3.2 12.9 0.00 0.00 0.00 87 1010.9
20260505060845 21 238 3.2 11.3 0.00 0.00 0.00 87 1011.1
20260505060611 21 167 4.8 12.9 0.00 0.00 0.00 86 1011.1
20260505060106 21 159 4.8 17.7 0.00 0.00 0.00 86 1011.2
20260505055600 21 169 3.2 17.7 0.00 0.00 0.00 86 1011.3
20260505054822 21 217 4.8 14.5 0.00 0.00 0.00 86 1011.3
20260505054317 21 222 4.8 14.5 0.00 0.00 0.00 86 1011.4
20260505053812 21 205 4.8 11.3 0.00 0.00 0.00 86 1011.5
20260505053304 21 159 4.8 20.9 0.00 0.00 0.00 86 1011.4
20260505052758 21 175 4.8 20.9 0.00 0.00 0.00 86 1011.3
20260505052252 21 202 4.8 12.9 0.00 0.00 0.00 86 1011.4
20260505051746 21 159 3.2 14.5 0.00 0.00 0.00 86 1011.2
20260505051239 21 169 3.2 14.5 0.00 0.00 0.00 85 1011.2
20260505050733 21 119 4.8 16.1 0.00 0.00 0.00 85 1011.3
20260505050458 21 189 4.8 16.1 0.00 0.00 0.00 85 1011.3
20260505041718 22 222 3.2 9.7 0.00 0.00 0.00 82 1011.3
20260505041216 22 175 3.2 12.9 0.00 0.00 0.00 82 1011.3
20260505040713 22 195 3.2 12.9 0.00 0.00 0.00 81 1011.3
20260505040213 22 163 3.2 12.9 0.00 0.00 0.00 81 1011.2
20260505035945 22 196 3.2 12.9 0.00 0.00 0.00 81 1011.2
20260505035213 22 213 3.2 11.3 0.00 0.00 0.00 80 1011.2
20260505034714 22 156 3.2 19.3 0.00 0.00 0.00 79 1011.4
20260505034214 22 150 4.8 19.3 0.00 0.00 0.00 79 1011.2
20260505033945 22 150 3.2 14.5 0.00 0.00 0.00 79 1011.1
20260505033212 22 157 3.2 14.5 0.00 0.00 0.00 78 1011.1